Location: Katowice
(50.2611°N, 19.0242°E)
Time: 18:02:54
(UTC+02:00)

ISS - Pass Details

Date: 25 March 2019
Orbit: 408 x 410 km, 51.6° (Epoch: 22 April)

Event Time Altitude Azimuth Distance (km) Brightness Sun altitude
Rises 20:14:13 0° 260° (W) 2,334 0.8 -20.5°
Reaches altitude 10° 20:16:18 10° 261° (W) 1,473 -0.3 -20.8°
Enters shadow 20:19:15 66° 285° (WNW) 450 -3.5 -21.2°
